Regional Weather Roundup
Issued by NWS

Home | Current Version | Previous Version | Graphics & Text | Print | Product List | Glossary On
Versions: 1 2 3 4 5 6 7 8 9 10 11 12 13 14 15 16 17 18 19 20 21 22 23 24 25 26 27 28 29 30 31 32 33 34 35 36 37 38 39 40 41 42 43 44 45 46 47 48 49 50
000
ASUS43 KLSX 130610
RWRMO

WEATHER SUMMARY FOR MISSOURI
NATIONAL WEATHER SERVICE SPRINGFIELD MO
1200 AM CST SAT FEB 13 2016

NOTE: "FAIR" INDICATES FEW OR NO CLOUDS BELOW 12,000 FEET WITH NO
       SIGNIFICANT WEATHER AND/OR OBSTRUCTIONS TO VISIBILITY.
       CURRENT SKY AND/OR WEATHER CONDITIONS ARE NOT AVAILABLE FOR
       CHILLICOTHE AND FARMINGTON.

MOZ001>031-035>038-043-044-053-054-130700-
...NORTHERN AND WESTERN MISSOURI...

CITY           SKY/WX    TMP DP  RH WIND       PRES   REMARKS
KANSAS CTY INT CLOUDY    19   7  59 N12       30.60R WCI   7
6HR MIN TEMP:  18; 6HR MAX TEMP:  27;

KANSAS C DTWN  CLOUDY    21   6  52 N8        30.62R WCI  11
6HR MIN TEMP:  21; 6HR MAX TEMP:  30;

LEE`S SUMMIT   CLOUDY    19   3  49 N14       30.59S WCI   6
6HR MIN TEMP:  19; 6HR MAX TEMP:  30;

ST JOSEPH      CLOUDY    17   6  62 N12       30.63S WCI   4
6HR MIN TEMP:  17; 6HR MAX TEMP:  25;

CHILLICOTHE      N/A     14   2  58 N13G18    30.63S WCI   0
6HR MIN TEMP:  14; 6HR MAX TEMP:  24;

KIRKSVILLE     CLOUDY    10   1  67 N9        30.59S WCI  -3
6HR MIN TEMP:  10; 6HR MAX TEMP:  18;


$$
MOZ066>068-077>081-088>096-101>105-130700-
...SOUTHWEST MISSOURI...

CITY           SKY/WX    TMP DP  RH WIND       PRES   REMARKS
SPRINGFIELD    CLOUDY    27   7  42 N14       30.51R WCI  16
6HR MIN TEMP:  27; 6HR MAX TEMP:  38;

JOPLIN         CLOUDY    29  11  47 NE14G20   30.53F WCI  18
6HR MIN TEMP:  29; 6HR MAX TEMP:  40;


$$
MOZ032>034-039>042-045>050-055>058-069>072-130700-
...CENTRAL MISSOURI...

CITY           SKY/WX    TMP DP  RH WIND       PRES   REMARKS
COLUMBIA       CLEAR     17   6  62 N15       30.56R WCI   2
6HR MIN TEMP:  17; 6HR MAX TEMP:  29;

JEFFERSON CITY CLEAR     20   6  55 N8        30.59R WCI  10
6HR MIN TEMP:  20; 6HR MAX TEMP:  32;

ROLLA          CLEAR     18   4  54 N10       30.51R WCI   6
6HR MIN TEMP:  18; 6HR MAX TEMP:  30;

SEDALIA        PTCLDY    18   3  52 N8        30.60R WCI   8
6HR MIN TEMP:  18; 6HR MAX TEMP:  31;

WHITEMAN AFB   CLOUDY    17   4  56 N12       30.57F WCI   4
WARRENSBURG    PTCLDY    19   5  53 N7        30.60S WCI  10
OSAGE BEACH    CLEAR     21   0  39 N8        30.55S WCI  12

$$
MOZ051-052-059>065-130700-
...EAST CENTRAL MISSOURI...

CITY           SKY/WX    TMP DP  RH WIND       PRES   REMARKS
ST LOUIS INTL  CLEAR     18   3  52 N16G23    30.54R WCI   3
6HR MIN TEMP:  18; 6HR MAX TEMP:  28;

SPIRIT OF STL  CLEAR     18   2  49 N10       30.56R WCI   6
6HR MIN TEMP:  18; 6HR MAX TEMP:  28;

ST CHARLES     CLEAR     16   4  59 N12G23    30.55S WCI   3
6HR MIN TEMP:  16; 6HR MAX TEMP:  26;


$$
MOZ072>076-082>087-097>100-106>115-130700-
...SOUTH CENTRAL AND SOUTHEAST MISSOURI...

CITY           SKY/WX    TMP DP  RH WIND       PRES   REMARKS
CAPE GIRARDEAU CLEAR     25   7  46 N15       30.50R WCI  13
6HR MIN TEMP:  24; 6HR MAX TEMP:  35;

FARMINGTON     PTCLDY    20   4  50 NW9       30.50R WCI   9
6HR MIN TEMP:  20; 6HR MAX TEMP:  31;

POPLAR BLUFF   CLEAR     28  16  60 N13       30.49R WCI  17
6HR MIN TEMP:  28; 6HR MAX TEMP:  41;

WEST PLAINS    CLEAR     26  10  50 N7        30.49R WCI  18
6HR MIN TEMP:  26; 6HR MAX TEMP:  39;


$$



USA.gov is the U.S. government's official web portal to all federal, state and local government web resources and services.